BAW50P EGLL-LPPT

Flight info

Callsign BAW50P
Flight time N/A
Altitude 35000
Route GASGU2J GASGU N866 SAM M195 LORKU DCT POZOF/N0446F370 DCT BALDA DCT ABUPI DCT XAMAX XAMAX3B
Aircraft A21N/M-SDE3FGIJ1LRWXYZ/SB1G1

Departure

Time 2026-05-08 09:06
Airport London Heathrow Airport (EGLL)

Arrival

Time N/A
Airport Lisbon Humberto Delgado Airport (LPPT)
Time Latitude Longitude Altitude Speed Heading
2026-05-08 08:39 51.47271 -0.48578 92 ft 0 kts 269°
2026-05-08 08:57 51.47271 -0.48556 91 ft 4 kts 269°
2026-05-08 08:57 51.47271 -0.48521 91 ft 3 kts 269°
2026-05-08 08:57 51.47277 -0.48485 93 ft 4 kts 223°
2026-05-08 08:58 51.47297 -0.48473 91 ft 4 kts 179°
2026-05-08 08:58 51.47316 -0.48473 91 ft 0 kts 179°
2026-05-08 09:01 51.47315 -0.48473 91 ft 1 kts 179°
2026-05-08 09:01 51.47299 -0.48473 91 ft 4 kts 179°
2026-05-08 09:01 51.47261 -0.48473 93 ft 7 kts 179°
2026-05-08 09:01 51.47204 -0.48472 93 ft 9 kts 179°
2026-05-08 09:02 51.47132 -0.48472 95 ft 11 kts 180°
2026-05-08 09:02 51.47047 -0.48471 95 ft 13 kts 180°
2026-05-08 09:02 51.46951 -0.48470 91 ft 15 kts 180°
2026-05-08 09:02 51.46867 -0.48470 91 ft 9 kts 180°
2026-05-08 09:03 51.46836 -0.48469 91 ft 1 kts 180°
2026-05-08 09:03 51.46831 -0.48469 91 ft 0 kts 180°
2026-05-08 09:03 51.46825 -0.48469 91 ft 2 kts 180°
2026-05-08 09:04 51.46774 -0.48469 92 ft 7 kts 180°
2026-05-08 09:04 51.46716 -0.48469 92 ft 10 kts 179°
2026-05-08 09:04 51.46642 -0.48468 92 ft 12 kts 179°
2026-05-08 09:05 51.46551 -0.48467 92 ft 14 kts 179°
2026-05-08 09:05 51.46478 -0.48387 94 ft 16 kts 92°
2026-05-08 09:05 51.46481 -0.48120 93 ft 49 kts 89°
2026-05-08 09:05 51.46484 -0.47183 92 ft 116 kts 90°
2026-05-08 09:06 51.46488 -0.45590 93 ft 167 kts 90°
2026-05-08 09:06 51.46506 -0.43713 652 ft 166 kts 89°
2026-05-08 09:06 51.46533 -0.41860 1267 ft 172 kts 91°
2026-05-08 09:06 51.46133 -0.39992 1646 ft 192 kts 130°
2026-05-08 09:07 51.45070 -0.38540 2204 ft 209 kts 137°
2026-05-08 09:07 51.44128 -0.36556 2672 ft 238 kts 123°
2026-05-08 09:07 51.43153 -0.34281 3328 ft 254 kts 133°
2026-05-08 09:07 51.41684 -0.32701 4188 ft 258 kts 161°
2026-05-08 09:08 51.39906 -0.32411 5079 ft 261 kts 188°
2026-05-08 09:08 51.38217 -0.33491 5968 ft 266 kts 214°
2026-05-08 09:08 51.36807 -0.35417 6842 ft 269 kts 222°
2026-05-08 09:08 51.35431 -0.37483 7696 ft 273 kts 222°
2026-05-08 09:09 51.34024 -0.39564 8545 ft 277 kts 221°
2026-05-08 09:09 51.32586 -0.41649 9418 ft 281 kts 220°
2026-05-08 09:09 51.31072 -0.43664 10270 ft 286 kts 223°
2026-05-08 09:09 51.29966 -0.46419 10665 ft 308 kts 250°
2026-05-08 09:10 51.29361 -0.49834 11003 ft 331 kts 255°
2026-05-08 09:10 51.28797 -0.53498 11460 ft 346 kts 255°
2026-05-08 09:10 51.28185 -0.57244 12212 ft 350 kts 254°
2026-05-08 09:10 51.27507 -0.60994 12987 ft 353 kts 252°
2026-05-08 09:11 51.26784 -0.64761 13735 ft 356 kts 252°
2026-05-08 09:11 51.26056 -0.68510 14427 ft 360 kts 252°
2026-05-08 09:11 51.25302 -0.72343 15114 ft 363 kts 252°
2026-05-08 09:11 51.24548 -0.76206 15791 ft 367 kts 252°
2026-05-08 09:12 51.23787 -0.80116 16440 ft 370 kts 252°
2026-05-08 09:12 51.23017 -0.84063 17070 ft 374 kts 252°
2026-05-08 09:12 51.22238 -0.88034 17675 ft 377 kts 252°
2026-05-08 09:12 51.21442 -0.92041 18266 ft 380 kts 251°
2026-05-08 09:13 51.20360 -0.95895 18829 ft 383 kts 238°
2026-05-08 09:13 51.18695 -0.99208 19348 ft 386 kts 225°
2026-05-08 09:13 51.16759 -1.02190 19867 ft 389 kts 223°
2026-05-08 09:13 51.14777 -1.05162 20365 ft 392 kts 223°
2026-05-08 09:14 51.12789 -1.08166 20856 ft 396 kts 223°
2026-05-08 09:14 51.10793 -1.11207 21357 ft 399 kts 224°
2026-05-08 09:14 51.08807 -1.14242 21823 ft 402 kts 224°
2026-05-08 09:14 51.06781 -1.17342 22300 ft 406 kts 224°
2026-05-08 09:15 51.04740 -1.20459 22768 ft 409 kts 224°
2026-05-08 09:15 51.02684 -1.23599 23241 ft 412 kts 224°
2026-05-08 09:15 51.00608 -1.26768 23714 ft 415 kts 224°
2026-05-08 09:15 50.98521 -1.29950 24149 ft 418 kts 224°
2026-05-08 09:16 50.96409 -1.33151 24584 ft 421 kts 223°
2026-05-08 09:16 50.94101 -1.36032 25016 ft 424 kts 214°
2026-05-08 09:16 50.91629 -1.38629 25398 ft 427 kts 213°
2026-05-08 09:16 50.89130 -1.41212 25780 ft 431 kts 214°
2026-05-08 09:17 50.86606 -1.43814 26162 ft 434 kts 214°
2026-05-08 09:17 50.84065 -1.46446 26545 ft 438 kts 214°
2026-05-08 09:17 50.81511 -1.49095 26906 ft 441 kts 214°
2026-05-08 09:17 50.78941 -1.51757 27251 ft 443 kts 214°
2026-05-08 09:18 50.76348 -1.54441 27604 ft 447 kts 214°
2026-05-08 09:18 50.73742 -1.57134 27935 ft 449 kts 215°
2026-05-08 09:18 50.71151 -1.59809 28255 ft 452 kts 214°
2026-05-08 09:18 50.68508 -1.62531 28555 ft 454 kts 215°
2026-05-08 09:19 50.65858 -1.65263 28846 ft 457 kts 215°
2026-05-08 09:19 50.63191 -1.68005 29135 ft 459 kts 215°
2026-05-08 09:19 50.60504 -1.70759 29451 ft 460 kts 215°
2026-05-08 09:19 50.57818 -1.73511 29815 ft 460 kts 216°
2026-05-08 09:20 50.55140 -1.76254 30157 ft 460 kts 216°
2026-05-08 09:20 50.52454 -1.78997 30526 ft 460 kts 216°
2026-05-08 09:20 50.49777 -1.81727 30899 ft 458 kts 216°
2026-05-08 09:20 50.47101 -1.84446 31267 ft 458 kts 216°
2026-05-08 09:21 50.44469 -1.87114 31644 ft 456 kts 216°
2026-05-08 09:21 50.41813 -1.89821 32020 ft 454 kts 216°
2026-05-08 09:22 50.25996 -2.05856 33982 ft 448 kts 216°
2026-05-08 09:23 50.23379 -2.08484 34271 ft 447 kts 216°
2026-05-08 09:23 50.20740 -2.11068 34531 ft 447 kts 215°
2026-05-08 09:23 50.18092 -2.13633 34762 ft 447 kts 215°
2026-05-08 09:23 50.15455 -2.16190 35003 ft 446 kts 215°
2026-05-08 09:24 50.12813 -2.18755 35081 ft 448 kts 215°
2026-05-08 09:24 50.07561 -2.23849 35068 ft 447 kts 215°
2026-05-08 09:25 50.02276 -2.28960 35055 ft 447 kts 215°
2026-05-08 09:25 49.96991 -2.34065 35053 ft 447 kts 214°
2026-05-08 09:26 49.91547 -2.38746 35051 ft 449 kts 207°
2026-05-08 09:26 49.85844 -2.42721 35052 ft 449 kts 207°
2026-05-08 09:27 49.80144 -2.46684 35050 ft 449 kts 207°
2026-05-08 09:27 49.74489 -2.50615 35050 ft 448 kts 207°
2026-05-08 09:28 49.68802 -2.54561 35043 ft 448 kts 207°
2026-05-08 09:28 49.63087 -2.58523 35042 ft 447 kts 207°
2026-05-08 09:29 49.57449 -2.62415 35032 ft 447 kts 207°
2026-05-08 09:29 49.51775 -2.66322 35030 ft 446 kts 207°
2026-05-08 09:30 49.46109 -2.70214 35025 ft 445 kts 207°
2026-05-08 09:30 49.40457 -2.74088 35022 ft 445 kts 207°
2026-05-08 09:31 49.34801 -2.77958 35025 ft 444 kts 207°
2026-05-08 09:31 49.29151 -2.81814 35023 ft 444 kts 206°
2026-05-08 09:32 49.23509 -2.85653 35020 ft 444 kts 206°
2026-05-08 09:32 49.17910 -2.89452 35020 ft 443 kts 206°
2026-05-08 09:33 49.12271 -2.93267 35019 ft 443 kts 206°
2026-05-08 09:33 49.06630 -2.97074 35019 ft 443 kts 206°
2026-05-08 09:34 49.00999 -3.00851 35023 ft 442 kts 206°
2026-05-08 09:34 48.95367 -3.04620 35019 ft 442 kts 206°
2026-05-08 09:35 48.89746 -3.08402 35020 ft 441 kts 206°
2026-05-08 09:35 48.84135 -3.12172 35024 ft 441 kts 206°
2026-05-08 09:36 48.78522 -3.15917 35019 ft 440 kts 206°
2026-05-08 09:36 48.72904 -3.19652 35018 ft 440 kts 206°
2026-05-08 09:37 48.67336 -3.23347 35015 ft 439 kts 206°
2026-05-08 09:37 48.61732 -3.27056 35025 ft 439 kts 206°
2026-05-08 09:38 48.56134 -3.30754 35018 ft 438 kts 206°
2026-05-08 09:38 48.50546 -3.34434 35022 ft 438 kts 206°
2026-05-08 09:39 48.44957 -3.38108 35006 ft 438 kts 206°
2026-05-08 09:39 48.39374 -3.41764 35007 ft 437 kts 206°
2026-05-08 09:40 48.33797 -3.45415 34999 ft 437 kts 206°
2026-05-08 09:40 48.28221 -3.49054 34987 ft 436 kts 205°
2026-05-08 09:41 48.22650 -3.52672 34995 ft 436 kts 206°
2026-05-08 09:41 48.17122 -3.56253 34981 ft 435 kts 206°
2026-05-08 09:42 48.11561 -3.59852 34982 ft 435 kts 205°
2026-05-08 09:42 48.06005 -3.63443 34979 ft 435 kts 206°
2026-05-08 09:43 48.00456 -3.67041 34971 ft 435 kts 206°
2026-05-08 09:43 47.94899 -3.70617 34970 ft 434 kts 205°
2026-05-08 09:44 47.89344 -3.74181 34971 ft 434 kts 205°
2026-05-08 09:44 47.83795 -3.77739 34970 ft 434 kts 205°
2026-05-08 09:45 47.78239 -3.81287 34970 ft 434 kts 205°
2026-05-08 09:45 47.72722 -3.84803 34964 ft 434 kts 205°
2026-05-08 09:46 47.67157 -3.88338 34962 ft 434 kts 205°
2026-05-08 09:46 47.61598 -3.91866 34963 ft 435 kts 205°
2026-05-08 09:47 47.56035 -3.95383 34960 ft 434 kts 205°
2026-05-08 09:47 47.50472 -3.98901 34975 ft 435 kts 205°
2026-05-08 09:47 47.47682 -4.00659 35161 ft 436 kts 205°
2026-05-08 09:48 47.44894 -4.02413 35419 ft 434 kts 205°
2026-05-08 09:48 47.42113 -4.04162 35648 ft 434 kts 205°
2026-05-08 09:48 47.39373 -4.05885 35835 ft 434 kts 205°
2026-05-08 09:48 47.36593 -4.07631 36021 ft 434 kts 205°
2026-05-08 09:49 47.33815 -4.09373 36197 ft 434 kts 205°
2026-05-08 09:49 47.31038 -4.11111 36362 ft 434 kts 204°
2026-05-08 09:49 47.28256 -4.12850 36518 ft 434 kts 204°
2026-05-08 09:49 47.25476 -4.14583 36715 ft 433 kts 204°
2026-05-08 09:50 47.22710 -4.16308 36944 ft 430 kts 204°
2026-05-08 09:50 47.17235 -4.19719 36989 ft 425 kts 204°
2026-05-08 09:51 47.11794 -4.23102 36973 ft 425 kts 204°
2026-05-08 09:51 47.06337 -4.26465 36970 ft 425 kts 203°
2026-05-08 09:52 47.00809 -4.29536 36970 ft 426 kts 201°
2026-05-08 09:52 46.96196 -4.32065 36970 ft 426 kts 202°
2026-05-08 09:53 46.90647 -4.35102 36970 ft 425 kts 202°
2026-05-08 09:53 46.85103 -4.38133 36970 ft 425 kts 201°
2026-05-08 09:54 46.79560 -4.41153 36970 ft 425 kts 201°
2026-05-08 09:54 46.74014 -4.44170 36964 ft 425 kts 201°
2026-05-08 09:55 46.67568 -4.47666 36953 ft 425 kts 201°
2026-05-08 09:55 46.62917 -4.50178 36945 ft 425 kts 201°
2026-05-08 09:56 46.57378 -4.53170 36940 ft 425 kts 201°
2026-05-08 09:56 46.51865 -4.56146 36940 ft 424 kts 201°
2026-05-08 09:57 46.43548 -4.60628 36940 ft 426 kts 201°
2026-05-08 09:57 46.38003 -4.63602 36934 ft 425 kts 201°
2026-05-08 09:58 46.32452 -4.66574 36930 ft 425 kts 201°
2026-05-08 09:58 46.26903 -4.69541 36930 ft 425 kts 201°
2026-05-08 09:59 46.21353 -4.72495 36930 ft 425 kts 201°
2026-05-08 09:59 46.15809 -4.75445 36929 ft 425 kts 201°
2026-05-08 10:00 46.10300 -4.78368 36914 ft 425 kts 201°
2026-05-08 10:00 46.04755 -4.81301 36909 ft 424 kts 201°
2026-05-08 10:01 45.99206 -4.84234 36914 ft 424 kts 201°
2026-05-08 10:01 45.93673 -4.87153 36926 ft 423 kts 201°
2026-05-08 10:02 45.88142 -4.90060 36914 ft 423 kts 200°
2026-05-08 10:02 45.82607 -4.92968 36911 ft 423 kts 200°
2026-05-08 10:03 45.77078 -4.95866 36912 ft 423 kts 200°
2026-05-08 10:03 45.71538 -4.98758 36921 ft 423 kts 200°
2026-05-08 10:04 45.66005 -5.01644 36910 ft 423 kts 200°
2026-05-08 10:04 45.60505 -5.04510 36903 ft 423 kts 200°
2026-05-08 10:05 45.54976 -5.07383 36898 ft 423 kts 200°
2026-05-08 10:05 45.49444 -5.10251 36898 ft 423 kts 200°
2026-05-08 10:06 45.43918 -5.13110 36896 ft 422 kts 200°
2026-05-08 10:06 45.38390 -5.15962 36903 ft 422 kts 200°
2026-05-08 10:07 45.32861 -5.18808 36899 ft 422 kts 200°
2026-05-08 10:07 45.27336 -5.21648 36891 ft 423 kts 200°
2026-05-08 10:08 45.21803 -5.24488 36890 ft 422 kts 200°
2026-05-08 10:08 45.16275 -5.27319 36886 ft 422 kts 200°
2026-05-08 10:09 45.10781 -5.30130 36888 ft 423 kts 200°
2026-05-08 10:09 45.05255 -5.32942 36891 ft 422 kts 200°
2026-05-08 10:10 44.99729 -5.35744 36895 ft 422 kts 200°
2026-05-08 10:10 44.94199 -5.38551 36884 ft 422 kts 200°
2026-05-08 10:11 44.88674 -5.41345 36882 ft 422 kts 200°
2026-05-08 10:11 44.83143 -5.44141 36881 ft 422 kts 199°
2026-05-08 10:12 44.77617 -5.46935 36880 ft 422 kts 199°
2026-05-08 10:12 44.72087 -5.49720 36881 ft 422 kts 199°
2026-05-08 10:13 44.66594 -5.52484 36882 ft 422 kts 199°
2026-05-08 10:13 44.61073 -5.55295 36879 ft 422 kts 201°
2026-05-08 10:14 44.55690 -5.58570 36882 ft 422 kts 203°
2026-05-08 10:14 44.50322 -5.61902 36882 ft 422 kts 203°
2026-05-08 10:15 44.44947 -5.65221 36882 ft 422 kts 203°